#timestamp,LO_Frequency,Hit 
1504162815.5,286047002.8,N
1504162835.3,286046999.8,N
1504162855.2,286046999.9,N
1504162875.9,286047000.1,N
1504162895.7,286047000.3,N
1504162915.6,286046998.2,N
1504162935.4,286047000.1,N
1504162955.2,286047001.5,N
1504162975.0,286047002.0,N
1504162975.9,286047002.0,N
1504162995.8,286047002.0,N
1504163015.6,286047002.2,N
1504163035.4,286047001.8,N
1504163055.3,286047001.8,N
1504163075.1,286047003.9,N
1504163095.8,286047004.2,N
1504163115.7,286047004.2,N
1504163135.5,286047001.3,N
1504163155.3,286047002.0,N
1504163175.2,286047002.8,N
1504163195.9,286047002.7,N
1504163215.7,286047000.2,N
1504163235.6,286047000.3,N
1504163255.4,286047002.8,N
1504163275.2,286047002.2,N
1504163295.0,286047004.1,N
1504163296.0,286047004.1,N
1504163315.8,286047003.8,N
1504163335.6,286047007.6,P
1504163355.5,286047004.1,N
1504163375.3,286047000.2,N
1504163395.1,286047001.2,N
1504163415.8,286046998.5,N
1504163435.7,286046998.6,N
1504163455.5,286047000.6,N
1504163475.3,286047002.7,N
1504163495.2,286047002.0,N
1504163515.9,286047002.2,N
1504163535.7,286047005.9,N
1504163555.6,286047003.5,N
1504163575.4,286047001.9,N
1504163595.2,286046999.7,N
1504163615.1,286046999.9,N
1504163616.0,286046999.9,N
1504163635.8,286046999.8,N
1504163655.6,286046999.9,N
1504163675.5,286046998.6,N
1504163695.3,286047000.1,N
1504163715.1,286047000.0,N
1504163735.8,286047002.6,N
1504163755.7,286047001.3,N
1504163775.5,286047002.6,N
1504163795.3,286047002.8,N
1504163815.2,286047002.6,N
1504163835.9,286047002.5,N
1504163855.7,286047002.4,N
1504163875.6,286047002.2,N
1504163895.4,286047002.2,N
1504163915.2,286047002.0,N
1504163935.1,286047002.3,N
1504163936.0,286047002.3,N
1504163955.8,286047000.0,N
1504163975.6,286046999.9,N
1504163995.5,286046998.2,N
1504164015.3,286047001.2,N
1504164035.1,286046998.7,N
1504164055.9,286047000.7,N
1504164075.7,286046999.1,N
1504164095.5,286046997.2,N
1504164115.3,286046995.6,N
1504164135.2,286046999.3,N
1504164155.0,286046998.4,N
1504164155.9,286046998.4,N
1504164175.7,286046996.5,N
1504164195.6,286046999.3,N
1504164215.4,286046999.5,N
1504164235.2,286046998.2,N
1504164255.1,286047000.9,N
1504164256.0,286047000.9,N
1504164275.8,286047000.4,N
1504164295.6,286046998.9,N
1504164315.5,286047000.9,N
1504164335.3,286047000.3,N
1504164355.1,286047000.0,N
1504164375.9,286046998.4,N
1504164395.7,286046999.3,N
1504164415.5,286046997.0,N
1504164435.4,286046999.2,N
1504164455.2,286046996.6,N
1504164475.0,286046996.7,N
1504164475.9,286046996.7,N
1504164495.8,286046999.1,N
1504164515.6,286046996.7,N
1504164535.4,286046997.3,N
1504164555.3,286046994.9,P
1504164575.1,286046995.0,N
1504164576.0,286046995.0,N
1504164595.8,286046997.7,N
1504164615.7,286046995.7,N
1504164635.5,286046996.0,N
1504164655.3,286046996.0,N
1504164675.2,286046996.1,P
1504164695.9,286047000.8,P
1504164715.7,286047000.5,N
1504164735.5,286047000.4,N
1504164755.4,286047000.5,N
1504164775.2,286047001.6,N
1504164795.0,286047004.4,N
1504164795.9,286047004.4,N
1504164815.8,286047001.6,N
1504164835.6,286047002.1,N
1504164855.4,286047000.2,N
1504164875.3,286047001.9,N
1504164895.1,286047002.0,N
1504164896.0,286047002.0,N
1504164915.8,286047001.8,N
1504164935.7,286047002.3,N
1504164955.5,286047002.2,N
1504164975.3,286047000.2,N
1504164995.2,286046998.9,N
1504165015.9,286046997.4,N
1504165035.7,286046996.0,N
1504165055.5,286046994.0,N
1504165075.4,286046992.1,N
1504165095.2,286046995.9,N
1504165115.0,286046994.2,N
1504165115.9,286046994.2,N
1504165135.8,286046992.3,N
1504165155.6,286046991.8,N
1504165175.4,286046992.4,N
1504165195.3,286046992.7,N
1504165215.1,286046992.6,N
1504165216.0,286046992.6,N
1504165235.8,286046992.8,N
1504165255.7,286046992.4,N
1504165275.5,286046995.9,N
1504165295.3,286046995.0,N
1504165315.2,286046992.6,N
1504165335.9,286046994.7,N
1504165355.7,286046993.7,N
1504165375.6,286046995.5,N
1504165395.4,286046993.6,N
1504165415.2,286046993.1,N
1504165435.0,286046991.2,N
1504165436.0,286046991.2,N
1504165455.8,286046991.0,N
1504165475.6,286046989.7,P
1504165495.5,286046994.3,N
1504165515.3,286046994.2,N
1504165535.1,286046993.8,P
1504165555.9,286046998.6,P
1504165575.7,286046998.8,N
1504165595.5,286046997.8,N
1504165615.4,286046996.1,N
1504165635.2,286046996.2,N
1504165655.0,286046997.9,N
1504165655.9,286046997.9,N
1504165675.8,286046993.8,P
1504165695.6,286046998.3,N
1504165715.4,286046998.7,N
1504165735.3,286046997.4,N
1504165755.1,286046997.6,N
1504165756.0,286046997.6,N
1504165775.8,286046997.3,N
1504165795.7,286046995.0,P
1504165815.5,286047000.0,N
1504165835.3,286046998.5,N
1504165855.2,286047002.8,N
1504165875.9,286047000.4,N
1504165895.7,286047001.0,N
1504165915.5,286047000.6,N
1504165935.4,286046998.4,N
1504165955.2,286046996.7,N
1504165975.0,286046997.3,N
1504165975.9,286046997.3,N
1504165995.8,286046999.2,N
1504166015.6,286046998.2,N
1504166035.4,286046999.1,N
1504166055.3,286046996.8,N
1504166075.1,286047001.2,N
1504166095.8,286046997.4,N
1504166115.7,286046997.4,N
1504166135.5,286046997.1,N
1504166155.3,286046999.5,N
1504166175.2,286046999.6,N
1504166195.9,286046997.9,N
1504166215.7,286046995.6,N
1504166235.6,286046994.6,N
1504166255.4,286046995.4,N
1504166275.2,286046996.3,N
1504166295.0,286046996.2,N
1504166295.9,286046996.2,N
1504166315.8,286046996.4,N
1504166335.6,286046996.4,N
1504166355.5,286046992.6,P
1504166375.3,286046991.8,P
1504166395.1,286046994.5,N
